This is the latest recevied weather packets stored in our database for station/object OK1OBR-13. If no packets are shown the sender has not sent any weather packets the latest 1 day(s).
| Time | Temp. | Humidity | Pressure | Rain* | Wind** | Luminosity | Snow |
|---|---|---|---|---|---|---|---|
| 1777952041 | 13.33° C | 56% | 931.7 hPa | 0 mm | 0.89 m/s, 112° | - | - |
| 1777951981 | 13.33° C | 56% | 931.4 hPa | 0 mm | 0.89 m/s, 115° | - | - |
| 1777951921 | 13.33° C | 56% | 931.5 hPa | 0 mm | 0.89 m/s, 113° | - | - |
| 1777951861 | 12.78° C | 56% | 931.7 hPa | 0 mm | 0.89 m/s, 103° | - | - |
| 1777951801 | 12.78° C | 56% | 931.6 hPa | 0 mm | 0.89 m/s, 115° | - | - |
| 1777951741 | 12.78° C | 57% | 931.6 hPa | 0 mm | 0.89 m/s, 111° | - | - |
| 1777951687 | 12.78° C | 57% | 931.5 hPa | 0 mm | 0.89 m/s, 125° | - | - |
| 1777951621 | 12.78° C | 57% | 931.5 hPa | 0 mm | 0.89 m/s, 99° | - | - |
| 1777951561 | 12.78° C | 57% | 931.6 hPa | 0 mm | 0.89 m/s, 101° | - | - |
| 1777951501 | 12.78° C | 57% | 931.5 hPa | 0 mm | 0.89 m/s, 113° | - | - |
| 1777951441 | 12.78° C | 58% | 931.6 hPa | 0 mm | 0.89 m/s, 102° | - | - |
| 1777951381 | 12.78° C | 58% | 931.6 hPa | 0 mm | 0.45 m/s, 105° | - | - |
| 1777951326 | 12.78° C | 58% | 931.6 hPa | 0 mm | 0.45 m/s, 105° | - | - |
| 1777951261 | 12.78° C | 58% | 931.7 hPa | 0 mm | 0.89 m/s, 106° | - | - |
| 1777951202 | 12.78° C | 58% | 931.7 hPa | 0 mm | 0.89 m/s, 96° | - | - |
| 1777951141 | 12.78° C | 58% | 931.6 hPa | 0 mm | 0.89 m/s, 101° | - | - |
| 1777951081 | 12.78° C | 58% | 931.6 hPa | 0 mm | 0.89 m/s, 98° | - | - |
| 1777951021 | 12.78° C | 58% | 931.5 hPa | 0 mm | 0.89 m/s, 82° | - | - |
| 1777950961 | 12.78° C | 59% | 931.7 hPa | 0 mm | 0.89 m/s, 124° | - | - |
| 1777950900 | 12.78° C | 59% | 931.8 hPa | 0 mm | 0.89 m/s, 108° | - | - |
| 1777950840 | 12.78° C | 59% | 931.8 hPa | 0 mm | 0.45 m/s, 91° | - | - |
| 1777950782 | 12.22° C | 59% | 931.7 hPa | 0 mm | 0.45 m/s, 79° | - | - |
| 1777950721 | 12.22° C | 59% | 931.8 hPa | 0 mm | 0.45 m/s, 86° | - | - |
| 1777950661 | 12.22° C | 59% | 931.7 hPa | 0 mm | 0.45 m/s, 87° | - | - |
| 1777950601 | 12.22° C | 59% | 931.9 hPa | 0 mm | 0.45 m/s, 88° | - | - |
* Rain since midnight (hover to see other rain measurements)
** Current wind speed in m/s (hover to see current wind gust speed)